This demonstration page uses our WeatherBlox Daily Observations layout. Learn more.

Left ArrowRight Arrow

38.89511, -77.03637

Hourly Observations for January 24, 2019

Temp ( °F °C ) Dew Point ( °F °C ) Humidity (%) Winds ( mph kmh ) Pressure ( in mb ) Visibility ( mi km ) Precip ( " mm )
12:52 am 00:52 Cloudy with Light Rain 55 12.8 50 10 83 83 S 14 22 29.80 1009 10 16 0.00 0.03
1:52 am 01:52 Cloudy 53 11.7 48 8.9 83 83 S 15 24 29.78 1008 10 16 0.00 0.03
2:42 am 02:42 Cloudy with Light Rain 55 12.8 52 11.1 90 90 SW 8 13 29.74 1007 8 13 0.06 1.52
2:52 am 02:52 Cloudy with Rain 55 12.8 52 11.1 90 90 SW 9 15 29.74 1007 5 8 0.08 2.03
3:43 am 03:43 Cloudy with Light Rain 52 11.1 50 10 93 93 S 12 19 29.68 1005 9 14 0.03 0.76
3:52 am 03:52 Cloudy with Light Rain 52 11.1 50 10 93 93 S 13 20 29.68 1005 8 13 0.03 0.76
4:03 am 04:03 Cloudy with Light Rain 53 11.7 51 10.6 93 93 S 15 24 29.68 1005 8 13 0.01 0.25
4:37 am 04:37 Cloudy with Light Rain 53 11.7 51 10.6 93 93 S 14 22 29.65 1004 10 16 0.04 1.02
4:52 am 04:52 Cloudy with Light Rain 55 12.8 52 11.1 90 90 S 17 28 29.62 1003 10 16 0.05 1.27
5:01 am 05:01 Cloudy with Light Rain 55 12.8 52 11.1 90 90 S 15 24 29.62 1003 10 16 0.00 0.03
5:52 am 05:52 Cloudy with Light Rain 56 13.3 53 11.7 90 90 S 20 31 29.56 1001 10 16 0.03 0.76
6:52 am 06:52 Cloudy with Light Rain 57 13.9 54 12.2 90 90 S 20 31 29.52 1000 10 16 0.05 1.27
7:18 am 07:18 Cloudy with Rain 54 12.2 52 11.1 93 93 S 14 22 29.53 1000 7 11 0.02 0.51
7:40 am 07:40 Cloudy with Light Rain 54 12.2 51 10.6 90 90 S 17 28 29.50 999 9 14 0.05 1.27
7:52 am 07:52 Cloudy with Light Rain 56 13.3 53 11.7 90 90 S 17 28 29.50 999 6 10 0.06 1.52
7:59 am 07:59 Cloudy with Rain 59 15 55 12.8 87 87 S 18 30 29.50 999 6 10 0.03 0.76
8:52 am 08:52 Cloudy with Light Rain 59 15 55 12.8 87 87 S 16 26 29.52 1000 5 8 0.00 0.00
9:52 am 09:52 Cloudy with Light Rain 60 15.5 56 13.4 87 87 S 14 22 29.43 997 5 8 0.00 0.00
10:29 am 10:29 Cloudy with Light Rain 56 13.3 54 12.2 93 93 S 15 24 29.41 996 10 16 0.01 0.25
10:52 am 10:52 Cloudy with Light Rain 58 14.4 55 12.8 90 90 SW 10 17 29.42 996 9 14 0.03 0.76
11:02 am 11:02 Cloudy with Heavy Rain 57 13.9 53 11.7 87 87 NW 20 31 29.44 997 2 3 0.06 1.52
11:06 am 11:06 Cloudy with Heavy Rain 56 13.3 52 11.1 87 87 NNW 23 37 29.41 996 2 2 0.10 2.54
11:09 am 11:09 Cloudy with Heavy Rain 56 13.3 52 11.1 87 87 NW 22 35 29.44 997 2 3 0.12 3.05
11:26 am 11:26 Cloudy with Heavy Rain 56 13.3 52 11.1 87 87 NW 9 15 29.41 996 3 4 0.21 5.33
11:35 am 11:35 Cloudy with Rain 56 13.3 52 11.1 87 87 NNW 9 15 29.41 996 4 6 0.24 6.10
11:52 am 11:52 Cloudy with Heavy Rain 56 13.3 51 10.6 84 84 NNW 14 22 29.43 997 3 5 0.28 7.11
12:29 pm 12:29 Cloudy with Rain 55 12.8 50 10 83 83 NW 17 28 29.41 996 4 6 0.12 3.05
12:40 pm 12:40 Cloudy with Rain 54 12.2 47 8.3 77 77 NW 21 33 29.44 997 5 8 0.14 3.56
12:52 pm 12:52 Cloudy with Rain 53 11.7 47 8.3 80 80 NW 14 22 29.45 997 4 6 0.16 4.06
1:07 pm 13:07 Cloudy with Heavy Rain 51 10.6 46 7.8 83 83 NNW 20 31 29.47 998 4 6 0.00 0.00
1:20 pm 13:20 Cloudy with Rain 50 10 45 7.2 83 83 NW 15 24 29.50 999 5 8 0.07 1.78
1:52 pm 13:52 Cloudy with Light Rain 49 9.4 43 6.1 80 80 NW 14 22 29.51 999 8 13 0.11 2.79
2:52 pm 14:52 Mostly Cloudy 47 8.3 39 3.9 74 74 NW 18 30 29.56 1001 10 16 0.02 0.51
3:50 pm 15:50 Mostly Cloudy 46 8 34 1 62 62 NW 16 26 29.62 1003 10 16 0.00 0.00
4:52 pm 16:52 Mostly Cloudy 43 6.1 27 -2.8 53 53 WNW 25 41 29.70 1006 10 16 0.00 0.00
5:52 pm 17:52 Mostly Cloudy 41 5 25 -3.9 53 53 WNW 22 35 29.76 1008 10 16 0.00 0.00
6:52 pm 18:52 Partly Cloudy 39 3.9 24 -4.4 55 55 NW 20 31 29.79 1009 10 16 0.00 0.00
7:52 pm 19:52 Mostly Clear 38 3.3 23 -5 55 55 NW 15 24 29.84 1010 10 16 0.00 0.00
8:52 pm 20:52 Mostly Cloudy 38 3.3 24 -4.4 57 57 NW 9 15 29.86 1011 10 16 0.00 0.00
9:52 pm 21:52 Mostly Cloudy 38 3.3 23 -5 55 55 WNW 10 17 29.87 1012 10 16 0.00 0.00
10:52 pm 22:52 Clear 37 2.8 22 -5.6 54 54 NW 14 22 29.89 1012 10 16 0.00 0.00
11:52 pm 23:52 Clear 36 2.2 23 -5 59 59 WNW 7 11 29.92 1013 10 16 0.00 0.00

Powered by AerisWeather